This demonstration page uses our WeatherBlox Daily Observations layout. Learn more.

Left ArrowRight Arrow

Hourly Observations for January 22, 2020

Temp ( °F °C ) Dew Point ( °F °C ) Humidity (%) Winds ( mph kmh ) Pressure ( in mb ) Visibility ( mi km ) Precip ( " mm )
12:53 am 00:53 Clear 28 -2.2 13 -10.6 53 53 Calm 30.42 1030 10 16 0.00 0.00
1:53 am 01:53 Clear 26 -3.3 15 -9.4 63 63 Calm 30.40 1030 10 16 0.00 0.00
2:53 am 02:53 Clear 24 -4.4 17 -8.3 75 75 Calm 30.40 1029 10 16 0.00 0.00
3:53 am 03:53 Clear 22 -5.6 16 -8.9 78 78 Calm 30.38 1029 10 16 0.00 0.00
4:53 am 04:53 Clear 24 -4.4 15 -9.4 68 68 Calm 30.38 1029 10 16 0.00 0.00
5:53 am 05:53 Clear 24 -4.4 15 -9.4 68 68 SE 3 6 30.39 1029 10 16 0.00 0.00
6:53 am 06:53 Clear 22 -5.6 18 -7.8 85 85 Calm 30.39 1029 10 16 0.00 0.00
7:53 am 07:53 Sunny 22 -5.6 17 -8.3 82 82 Calm 30.41 1030 10 16 0.00 0.00
8:53 am 08:53 Sunny 26 -3.3 20 -6.7 78 78 Calm 30.40 1030 10 16 0.00 0.00
9:53 am 09:53 Sunny 32 0 19 -7.2 59 59 NE 7 11 30.41 1030 10 16 0.00 0.00
10:53 am 10:53 Sunny 38 3.3 13 -10.6 36 36 E 13 20 30.39 1029 10 16 0.00 0.00
11:53 am 11:53 Sunny 41 5 11 -11.7 29 29 ENE 12 19 30.37 1028 10 16 0.00 0.00
12:53 pm 12:53 Sunny 45 7.2 11 -11.7 25 25 ENE 8 13 30.34 1027 10 16 0.00 0.00
1:53 pm 13:53 Sunny 47 8.3 10 -12.2 22 22 VRB 5 7 30.33 1027 10 16 0.00 0.00
2:53 pm 14:53 Sunny 49 9.4 12 -11.1 22 22 Calm 30.30 1026 10 16 0.00 0.00
3:53 pm 15:53 Sunny 50 10 11 -11.7 21 21 NNE 6 9 30.28 1026 10 16 0.00 0.00
4:53 pm 16:53 Sunny 49 9.4 10 -12.2 21 21 ENE 6 9 30.28 1025 10 16 0.00 0.00
5:53 pm 17:53 Sunny 47 8.3 11 -11.7 23 23 ENE 5 7 30.27 1025 10 16 0.00 0.00
6:53 pm 18:53 Clear 42 5.6 16 -8.9 35 35 Calm 30.30 1026 10 16 0.00 0.00
7:53 pm 19:53 Clear 37 2.8 17 -8.3 44 44 NNE 3 6 30.31 1026 10 16 0.00 0.00
8:53 pm 20:53 Clear 37 2.8 20 -6.7 50 50 Calm 30.32 1027 10 16 0.00 0.00
9:53 pm 21:53 Clear 37 2.8 20 -6.7 50 50 ENE 3 6 30.30 1026 10 16 0.00 0.00
10:53 pm 22:53 Clear 41 5 16 -8.9 36 36 Calm 30.31 1026 10 16 0.00 0.00
11:53 pm 23:53 Mostly Cloudy 43 6.1 14 -10 31 31 E 9 15 30.30 1026 10 16 0.00 0.00

Powered by AerisWeather